Regional Weather Roundup
Issued by NWS

Home | Current Version | Previous Version | Text Only | Print | Product List | Glossary Off
Versions: 1 2 3 4 5 6 7 8 9 10 11 12 13 14 15 16 17 18 19 20 21 22 23 24 25 26 27

000
ASUS45 KCYS 252210
RWRWY

WYOMING REGIONAL WEATHER ROUNDUP
NATIONAL WEATHER SERVICE CHEYENNE WY
400 PM MDT THU AUG 25 2016

NOTE:  "FAIR" INDICATES FEW OR NO CLOUDS BELOW 12,000 FEET
WITH NO SIGNIFICANT WEATHER AND/OR OBSTRUCTIONS TO VISIBILITY.

WYZ001-252300-
YELLOWSTONE NATIONAL PARK

CITY           SKY/WX    TMP DP  RH WIND       PRES   REMARKS
LK YELLOWSTONE   N/A     58  29  33 VRB3      30.26F
W YELLOWSTONE  NOT AVBL

$$
WYZ002>013-054>058-071-098>099-252300-
NORTHERN WYOMING

CITY           SKY/WX    TMP DP  RH WIND       PRES   REMARKS
JACKSON        FAIR      63  34  34 NW15      30.20S
CODY           PTSUNNY   61  41  48 N5        30.20F
GREYBULL       FAIR      69  35  28 SW6       30.16F
WORLAND        FAIR      70  42  36 E8        30.16F
SHERIDAN       FAIR      68  39  34 SE8       30.20F
BUFFALO        PTSUNNY   63  41  44 S12       30.25F
GILLETTE       PTSUNNY   64  38  38 VRB3      30.23F
HULETT         FAIR      66  36  32 E3        30.24F
NEWCASTLE      FAIR      64  34  32 W7        30.25S

$$
WYZ014>020-022>026-101>103-252300-
CENTRAL WYOMING

CITY           SKY/WX    TMP DP  RH WIND       PRES   REMARKS
BIG PINEY      LGT RAIN  53  39  59 N8G18     30.24R
PINEDALE       MOCLDY    63  30  29 SE3       30.23F
DUBOIS         FAIR      57  32  38 NE8       30.25F
LANDER         PTSUNNY   63  42  46 N7        30.19F
RIVERTON       FAIR      64  44  48 E12       30.21F
CASPER         PTSUNNY   61  45  55 E7G18     30.23F
DOUGLAS        PTSUNNY   63  44  50 SE10      30.26F

$$
WYZ021-027>030-104>119-252300-
SOUTHERN WYOMING

CITY           SKY/WX    TMP DP  RH WIND       PRES   REMARKS
EVANSTON       CLOUDY    70  21  15 SW12G21   30.20F
FORT BRIDGER   FAIR      67  27  21 SW7G21    30.24F
ROCK SPRINGS   FAIR      68  26  20 VRB7      30.21F
DIXON          FAIR      70  34  26 W3        30.22F
RAWLINS        FAIR      68  31  25 N9        30.23F
SARATOGA       FAIR      68  34  28 NW8G17    30.24F
LARAMIE        FAIR      62  39  42 SE25G36   30.25F
CHEYENNE       FAIR      68  37  32 SE15      30.25F
TORRINGTON     FAIR      68  42  38 SE7       30.22F
PINE BLUFFS    CLOUDY    70  34  26 SW10      30.24S

$$




USA.gov is the U.S. government's official web portal to all federal, state and local government web resources and services.